When you browse on this site, cookies collect data to enhance your experience and personalize the content and advertising you see.
Visit our Privacy Policy to learn more. By continuing to use the site, you agree to this use of cookies and data.
  • Em Portugal
  • Lista de países
  • Para 7 dias
  • Temperatura da água
  • Mapa do tempo
  • Widgets de tempo
  • user-avatar
    Iniciar Sessão

    Previsão horária em Escaldes-Engordany

    Hoje, 15 Outubro, Terça-feira

    Tempo Temperatura Precipitação Vento Pressão Humidade
    00:00 +8°C° 0.3 mm 2 m/s 635 mmHg 96%
    01:00 +8°C° 0.2 mm 1 m/s 634 mmHg 96%
    02:00 +7°C° 0.2 mm 1 m/s 634 mmHg 96%
    03:00 +6°C° 0.2 mm 1 m/s 634 mmHg 95%
    04:00 +6°C° 0.2 mm 1 m/s 634 mmHg 96%
    05:00 +4°C° 0.2 mm 2 m/s 634 mmHg 96%
    06:00 +4°C° 0.2 mm 2 m/s 635 mmHg 96%
    07:00 +5°C° 0.2 mm 2 m/s 635 mmHg 91%
    08:00 +5°C° 0.2 mm 2 m/s 636 mmHg 86%
    09:00 +6°C° 0.2 mm 2 m/s 637 mmHg 81%
    10:00 +9°C° 0 mm 1 m/s 638 mmHg 71%
    11:00 +11°C° 0 mm 1 m/s 638 mmHg 60%
    12:00 +12°C° 0 mm 1 m/s 639 mmHg 50%
    13:00 +12°C° 0 mm 1 m/s 639 mmHg 50%
    14:00 +12°C° 0 mm 1 m/s 639 mmHg 50%
    15:00 +12°C° 0 mm 1 m/s 639 mmHg 49%
    16:00 +10°C° 0 mm 1 m/s 638 mmHg 60%
    17:00 +8°C° 0 mm 1 m/s 638 mmHg 72%
    18:00 +6°C° 0 mm 1 m/s 638 mmHg 83%
    19:00 +6°C° 0 mm 1 m/s 638 mmHg 84%
    20:00 +6°C° 0 mm 1 m/s 638 mmHg 85%
    21:00 +5°C° 0 mm 1 m/s 638 mmHg 87%
    22:00 +5°C° 0 mm 1 m/s 638 mmHg 87%
    23:00 +5°C° 0 mm 1 m/s 638 mmHg 86%

    Amanhã, 16 Outubro, Quarta-feira

    Tempo Temperatura Precipitação Vento Pressão Humidade
    00:00 +5°C° 0 mm 1 m/s 638 mmHg 86%
    01:00 +5°C° 0 mm 1 m/s 638 mmHg 86%
    02:00 +5°C° 0 mm 1 m/s 637 mmHg 85%
    03:00 +4°C° 0 mm 1 m/s 637 mmHg 85%
    04:00 +4°C° 0 mm 1 m/s 637 mmHg 83%
    05:00 +4°C° 0 mm 1 m/s 637 mmHg 81%
    06:00 +4°C° 0 mm 1 m/s 636 mmHg 80%
    07:00 +5°C° 0 mm 2 m/s 637 mmHg 69%
    08:00 +8°C° 0 mm 2 m/s 638 mmHg 59%
    09:00 +10°C° 0 mm 2 m/s 639 mmHg 48%
    10:00 +12°C° 0 mm 2 m/s 639 mmHg 45%
    11:00 +13°C° 0 mm 2 m/s 639 mmHg 42%
    12:00 +14°C° 0 mm 2 m/s 639 mmHg 39%
    13:00 +14°C° 0 mm 2 m/s 639 mmHg 41%
    14:00 +14°C° 0 mm 2 m/s 638 mmHg 43%
    15:00 +14°C° 0 mm 2 m/s 638 mmHg 44%
    16:00 +12°C° 0 mm 1 m/s 638 mmHg 51%
    17:00 +10°C° 0 mm 1 m/s 637 mmHg 57%
    18:00 +8°C° 0 mm 1 m/s 637 mmHg 63%
    19:00 +8°C° 0 mm 1 m/s 637 mmHg 64%
    20:00 +8°C° 0 mm 1 m/s 637 mmHg 65%
    21:00 +8°C° 0 mm 1 m/s 638 mmHg 65%
    22:00 +8°C° 0 mm 1 m/s 638 mmHg 66%
    23:00 +8°C° 0 mm 1 m/s 637 mmHg 66%

    Depois de amanhã, 17 Outubro, Quinta-feira

    Tempo Temperatura Precipitação Vento Pressão Humidade
    00:00 +7°C° 0 mm 1 m/s 637 mmHg 67%
    01:00 +7°C° 0 mm 1 m/s 637 mmHg 68%
    02:00 +7°C° 0 mm 1 m/s 637 mmHg 68%
    03:00 +7°C° 0 mm 1 m/s 637 mmHg 69%
    04:00 +7°C° 0 mm 1 m/s 637 mmHg 71%
    05:00 +7°C° 0 mm 1 m/s 637 mmHg 72%
    06:00 +7°C° 0 mm 1 m/s 637 mmHg 74%
    07:00 +10°C° 0 mm 1 m/s 638 mmHg 68%
    08:00 +12°C° 0 mm 1 m/s 639 mmHg 63%
    09:00 +14°C° 0 mm 1 m/s 640 mmHg 57%
    10:00 +15°C° 0 mm 2 m/s 640 mmHg 56%
    11:00 +15°C° 0 mm 2 m/s 640 mmHg 54%
    12:00 +16°C° 0 mm 2 m/s 641 mmHg 53%
    13:00 +15°C° 0 mm 2 m/s 640 mmHg 55%
    14:00 +15°C° 0 mm 2 m/s 640 mmHg 56%
    15:00 +14°C° 0 mm 2 m/s 639 mmHg 58%
    16:00 +13°C° 0 mm 2 m/s 639 mmHg 62%
    17:00 +11°C° 0 mm 1 m/s 638 mmHg 66%
    18:00 +10°C° 0 mm 1 m/s 638 mmHg 70%
    19:00 +10°C° 0 mm 1 m/s 638 mmHg 70%
    20:00 +9°C° 0 mm 1 m/s 638 mmHg 70%
    21:00 +9°C° 0 mm 1 m/s 638 mmHg 69%
    22:00 +8°C° 0 mm 1 m/s 638 mmHg 70%
    23:00 +8°C° 0 mm 1 m/s 638 mmHg 71%

    18 Outubro, Sexta-feira

    Tempo Temperatura Precipitação Vento Pressão Humidade
    00:00 +7°C° 0 mm 1 m/s 637 mmHg 71%
    01:00 +7°C° 0 mm 1 m/s 637 mmHg 72%
    02:00 +7°C° 0 mm 1 m/s 637 mmHg 73%
    03:00 +7°C° 0 mm 1 m/s 637 mmHg 74%
    04:00 +7°C° 0 mm 1 m/s 637 mmHg 75%
    05:00 +7°C° 0 mm 1 m/s 637 mmHg 75%
    06:00 +7°C° 0 mm 1 m/s 637 mmHg 75%
    07:00 +9°C° 0 mm 1 m/s 638 mmHg 69%
    08:00 +10°C° 0 mm 0 m/s 639 mmHg 63%
    09:00 +12°C° 0 mm 0 m/s 640 mmHg 57%
    10:00 +14°C° 0 mm 1 m/s 640 mmHg 55%
    11:00 +14°C° 0 mm 1 m/s 640 mmHg 53%
    12:00 +15°C° 0 mm 2 m/s 640 mmHg 50%
    13:00 +15°C° 0 mm 1 m/s 640 mmHg 54%
    14:00 +14°C° 0 mm 1 m/s 640 mmHg 57%
    15:00 +14°C° 0 mm 1 m/s 639 mmHg 61%
    16:00 +12°C° 0 mm 1 m/s 639 mmHg 70%
    17:00 +9°C° 0 mm 0 m/s 638 mmHg 79%
    18:00 +7°C° 0 mm 0 m/s 637 mmHg 88%
    19:00 +7°C° 0 mm 0 m/s 637 mmHg 89%
    20:00 +7°C° 0 mm 0 m/s 638 mmHg 89%
    21:00 +6°C° 0 mm 0 m/s 638 mmHg 90%
    22:00 +7°C° 0 mm 1 m/s 637 mmHg 90%
    23:00 +7°C° 0 mm 1 m/s 637 mmHg 90%

    19 Outubro, Sábado

    Tempo Temperatura Precipitação Vento Pressão Humidade
    00:00 +7°C° 0 mm 1 m/s 637 mmHg 90%
    01:00 +7°C° 0 mm 1 m/s 637 mmHg 90%
    02:00 +7°C° 0 mm 1 m/s 636 mmHg 91%
    03:00 +7°C° 0 mm 1 m/s 636 mmHg 91%
    04:00 +7°C° 0 mm 1 m/s 636 mmHg 91%
    05:00 +8°C° 0 mm 1 m/s 636 mmHg 91%
    06:00 +8°C° 0 mm 1 m/s 636 mmHg 90%
    07:00 +8°C° 0.1 mm 2 m/s 636 mmHg 87%
    08:00 +9°C° 0.1 mm 3 m/s 636 mmHg 83%
    09:00 +10°C° 0.1 mm 3 m/s 636 mmHg 79%
    10:00 +10°C° 0.7 mm 3 m/s 636 mmHg 82%
    11:00 +9°C° 0.7 mm 3 m/s 635 mmHg 85%
    12:00 +9°C° 0.7 mm 2 m/s 635 mmHg 88%
    13:00 +9°C° 0.1 mm 2 m/s 635 mmHg 84%
    14:00 +10°C° 0.1 mm 2 m/s 635 mmHg 80%
    15:00 +10°C° 0.1 mm 2 m/s 635 mmHg 75%
    16:00 +10°C° 0.2 mm 1 m/s 635 mmHg 81%
    17:00 +9°C° 0.2 mm 1 m/s 635 mmHg 88%
    18:00 +8°C° 0.2 mm 1 m/s 635 mmHg 94%
    19:00 +8°C° 0.3 mm 1 m/s 635 mmHg 94%
    20:00 +7°C° 0.3 mm 0 m/s 635 mmHg 94%
    21:00 +7°C° 0.3 mm 0 m/s 636 mmHg 94%
    22:00 +7°C° 0.2 mm 0 m/s 635 mmHg 94%
    23:00 +8°C° 0.2 mm 1 m/s 635 mmHg 93%

    20 Outubro, Domingo

    Tempo Temperatura Precipitação Vento Pressão Humidade
    00:00 +7°C° 0.2 mm 1 m/s 635 mmHg 93%
    01:00 +7°C° 0.2 mm 1 m/s 635 mmHg 92%
    02:00 +7°C° 0.2 mm 1 m/s 635 mmHg 92%
    03:00 +7°C° 0.2 mm 1 m/s 635 mmHg 92%
    04:00 +6°C° 0.2 mm 1 m/s 635 mmHg 92%
    05:00 +6°C° 0.2 mm 1 m/s 635 mmHg 93%
    06:00 +5°C° 0.2 mm 1 m/s 635 mmHg 94%
    07:00 +6°C° 0.2 mm 1 m/s 635 mmHg 91%
    08:00 +6°C° 0.2 mm 1 m/s 636 mmHg 89%
    09:00 +7°C° 0.2 mm 1 m/s 636 mmHg 86%
    10:00 +8°C° 0.2 mm 1 m/s 637 mmHg 82%
    11:00 +8°C° 0.2 mm 1 m/s 637 mmHg 78%
    12:00 +9°C° 0.2 mm 1 m/s 637 mmHg 74%
    13:00 +9°C° 0.4 mm 1 m/s 637 mmHg 76%
    14:00 +8°C° 0.4 mm 1 m/s 637 mmHg 78%
    15:00 +8°C° 0.4 mm 1 m/s 636 mmHg 81%
    16:00 +7°C° 0.4 mm 1 m/s 636 mmHg 85%
    17:00 +6°C° 0.4 mm 1 m/s 636 mmHg 88%
    18:00 +5°C° 0.4 mm 1 m/s 636 mmHg 92%
    19:00 +3°C° 0.6 mm 2 m/s 637 mmHg 93%
    20:00 +3°C° 0.6 mm 2 m/s 637 mmHg 94%
    21:00 +2°C° 0.6 mm 2 m/s 637 mmHg 96%
    22:00 +2°C° 0.2 mm 2 m/s 637 mmHg 95%
    23:00 +2°C° 0.2 mm 2 m/s 637 mmHg 94%
    Mostrar mais